Location: Edinburgh
(55.9500°N, 3.1600°W)
Time: 12:54:00
(UTC+00:00)

BlueWalker 3 - Visible Passes

Search period start: 27 February 2024 00:00
Search period end: 08 March 2024 00:00
Orbit: 486 x 500 km, 53.2° (Epoch: 26 February)

Date Brightness Start Highest point End Pass type
(mag) Time Alt. Az. Time Alt. Az. Time Alt. Az.
27 Feb 2.3 19:09:58 10° W 19:13:40 53° S 19:15:48 23° ESE visible
27 Feb 4.0 20:48:19 10° W 20:50:17 22° WSW 20:50:17 22° WSW visible
28 Feb 2.4 18:46:08 10° W 18:49:49 54° S 18:52:59 13° ESE visible
28 Feb 3.5 20:24:27 10° W 20:27:28 26° SW 20:27:28 26° SW visible
29 Feb 2.4 18:22:16 10° W 18:25:58 54° S 18:29:39 10° ESE visible
29 Feb 3.4 20:00:35 10° W 20:03:49 27° SSW 20:04:41 25° S visible
01 Mar 3.5 19:36:41 10° W 19:39:56 28° SSW 19:41:55 18° SSE visible
02 Mar 3.5 19:12:45 10° W 19:16:02 28° SSW 19:19:13 10° SSE visible
03 Mar 3.6 18:48:49 10° W 18:52:08 29° SSW 18:55:25 10° SSE visible
